Weather in Tukay

Russia / Orenburg Oblast     52°45′29″N   54°14′06″E
temp.,
°C
wind,
m/s
gust,
m/s
humid.,
%
clouds,
%
prec.,
mm/h
press.,
hPa
HPBL,
m
7 march, sun
sun723:00−9ne1195100 0.0 101321
02:00−9nne2496100 0.5 101296
05:00−10nne4791100 0.6 1011166
08:00−12nne3686100 0.0 101197
11:00−12nnw368482 0.0 1012186
14:00−10nw35830 0.0 1012270
17:00−11w35920 0.0 1013174
20:00−14sw239618 0.0 101421
8 march, mon
mon823:00−14ssw489655 0.1 1014160
02:00−14ssw5109899 0.1 1012217
05:00−11ssw81794100 0.3 1010545
08:00−8ssw101792100 0.8 1007773
11:00−6sw121893100 1.3 10061061
14:00−4sw111690100 0.8 10061071
17:00−3sw91490100 0.9 10071056
20:00−4sw71493100 0.2 1008617
9 march, tue
tue923:00−3sw61197100 0.6 1008549
02:00−3sw71396100 1.1 1007688
05:00−3sw81496100 1.9 1005673
08:00−3sw81496100 0.9 1006706
11:00−4w71094100 2.5 1008633
14:00−5w478296 0.1 1009471
17:00−6nw118798 0.1 100922
20:00−8n3491100 0.1 100881
10 march, wed
wed1023:00−9nnw3695100 0.9 1007200
02:00−11nw4795100 0.5 1007183
05:00−15nw459792 0.5 100886
08:00−18wnw349983 0.0 101040
11:00−15wnw469692 0.1 1011256
14:00−14wnw5694100 0.0 1013356
17:00−14wnw5792100 0.1 1014479
20:00−17wnw4897100 0.1 1016183
11 march, thu
thu1123:00−19nw369899 0.1 1017128
02:00−22nnw339886 0.0 101829
05:00−24nw229984 0.0 102020
08:00−25nw2210086 0.0 102220
11:00−23wnw239683 0.0 1024178
14:00−21wnw459454 0.0 1025248
17:00−21w469335 0.0 1025297
20:00−23wsw459830 0.0 102672